Location: Buchloe
(48.0161°N, 10.7316°E)
Time: 12:11:48
(UTC+02:00)

ISS - Pass Details

Date: 26 May 2018
Orbit: 402 x 407 km, 51.6° (Epoch: 26 May)

Event Time Altitude Azimuth Distance (km) Brightness Sun altitude
Rises 01:12:09 0° 292° (WNW) 2,320 0.3 -20.9°
Reaches altitude 10° 01:14:15 10° 294° (WNW) 1,458 -0.7 -20.9°
Enters shadow 01:17:14 66° 338° (NNW) 443 -3.6 -20.9°
